This is the latest recevied weather packets stored in our database for station/object MB7UUE. If no packets are shown the sender has not sent any weather packets the latest 10 day(s).
| Time | Temp. | Humidity | Pressure | Rain* | Wind** | Luminosity | Snow |
|---|---|---|---|---|---|---|---|
| 1777580817 | 13.89° C | 47% | 1021.2 hPa | 0 mm | - | - | - |
| 1777579678 | 14.44° C | 44% | 1021.2 hPa | 0 mm | - | - | - |
| 1777578538 | 15.56° C | 41% | 1021.2 hPa | 0 mm | - | - | - |
| 1777577399 | 15.56° C | 40% | 1021 hPa | 0 mm | - | - | - |
| 1777577399 | 15.56° C | 40% | 1021 hPa | 0 mm | - | - | - |
| 1777576258 | 16.11° C | 37% | 1021 hPa | 0 mm | - | - | - |
| 1777575119 | 16.67° C | 34% | 1020.8 hPa | 0 mm | - | - | - |
| 1777573979 | 17.22° C | 34% | 1021 hPa | 0 mm | - | - | - |
| 1777572838 | 17.78° C | 33% | 1020.9 hPa | 0 mm | - | - | - |
| 1777571700 | 17.78° C | 32% | 1020.8 hPa | 0 mm | - | - | - |
| 1777570558 | 17.78° C | 33% | 1020.7 hPa | 0 mm | - | - | - |
| 1777569419 | 17.78° C | 31% | 1020.7 hPa | 0 mm | - | - | - |
| 1777568278 | 17.78° C | 31% | 1021 hPa | 0 mm | - | - | - |
| 1777567139 | 17.78° C | 31% | 1021.1 hPa | 0 mm | - | - | - |
| 1777565999 | 18.33° C | 32% | 1021.1 hPa | 0 mm | - | - | - |
| 1777564858 | 17.78° C | 32% | 1021.2 hPa | 0 mm | - | - | - |
| 1777563719 | 17.78° C | 33% | 1021.5 hPa | 0 mm | - | - | - |
| 1777563719 | 17.78° C | 33% | 1021.5 hPa | 0 mm | - | - | - |
| 1777562579 | 17.78° C | 34% | 1021.7 hPa | 0 mm | - | - | - |
| 1777561439 | 18.33° C | 34% | 1021.7 hPa | 0 mm | - | - | - |
| 1777560299 | 18.33° C | 33% | 1021.8 hPa | 0 mm | - | - | - |
| 1777560299 | 18.33° C | 33% | 1021.8 hPa | 0 mm | - | - | - |
| 1777559158 | 18.33° C | 32% | 1021.9 hPa | 0 mm | - | - | - |
| 1777558019 | 18.33° C | 30% | 1022.2 hPa | 0 mm | - | - | - |
| 1777556878 | 18.33° C | 34% | 1022.2 hPa | 0 mm | - | - | - |
* Rain latest hour (hover to see other rain measurements)
** Current wind speed in m/s (hover to see current wind gust speed)